Weather History for Aurora, NE

Change the Weather History Date:

Monday, October 28, 2013

  Actual Average Record
Temperature  
Mean Temperature 45 °F -  
Max Temperature 51 °F 60 °F 80 °F (1966)
Min Temperature 39 °F 35 °F 21 °F (1980)
Degree Days  
Heating Degree Days 20    
Moisture  
Dew Point 35 °F    
Average Humidity 67    
Maximum Humidity 81    
Minimum Humidity 53    
Precipitation  
Precipitation 0.00 in - - ()
Sea Level Pressure  
Sea Level Pressure 30.07 in    
Wind  
Wind Speed 13 mph (NE)    
Max Wind Speed 21 mph    
Max Gust Speed 26 mph    
Visibility 10 miles    
Events Thunderstorm    
Averages and records for this station are not official NWS values.
T = Trace of Precipitation, MM = Missing Value Source: NWS Daily Summary

Daily Weather History Graph

Daily Weather History Graph

Search for Another Location

Airport:

Trip Planner

Search our weather history database for the weather conditions in past years. The results will help you decide how hot, cold, wet, or windy it might be!

Date:

Astronomy

Oct. 28, 2013 Rise Set
Actual Time 7:58 AM CDT 6:32 PM CDT
Civil Twilight 7:29 AM CDT 7:00 PM CDT
Nautical Twilight 6:57 AM CDT 7:33 PM CDT
Astronomical Twilight 6:25 AM CDT 8:04 PM CDT
Moon 1:50 AM CDT (10/28) 3:17 PM CDT (10/28)
Length of Visible Light 11h 30m
Length of Day
10h 34m
Waning Crescent, 34% of the Moon is Illuminated
Oct 28
Waning Crescent
Nov 3
New
Nov 9
First Quarter
Nov 17
Full
Nov 25
Last Quarter

Hourly Weather History & Observations

Time (CDT) Temp. Windchill Dew Point Humidity Pressure Visibility Wind Dir Wind Speed Gust Speed Precip Events Conditions
12:15 AM 46.4 °F 42.4 °F 37.8 °F 72% 29.95 in 10.0 mi NE 8.1 mph - N/A   Clear
12:35 AM 46.4 °F 41.9 °F 37.9 °F 72% 29.95 in 10.0 mi NE 9.2 mph - N/A   Clear
12:55 AM 45.5 °F 40.3 °F 37.9 °F 75% 29.96 in 10.0 mi NE 10.4 mph - N/A   Clear
1:15 AM 45.5 °F 41.8 °F 37.6 °F 74% 29.96 in 10.0 mi NE 6.9 mph - N/A   Clear
1:35 AM 44.8 °F 39.9 °F 37.4 °F 75% 29.97 in 10.0 mi NE 9.2 mph - N/A   Clear
1:55 AM 44.4 °F 39.0 °F 37.0 °F 75% 29.97 in 10.0 mi NE 10.4 mph - N/A   Clear
2:15 AM 44.8 °F 39.4 °F 36.5 °F 73% 29.97 in 10.0 mi NE 10.4 mph - N/A   Clear
2:35 AM 45.5 °F 40.3 °F 36.0 °F 69% 29.97 in 10.0 mi ENE 10.4 mph - N/A   Clear
2:55 AM 45.1 °F 40.3 °F 35.8 °F 70% 29.98 in 10.0 mi ENE 9.2 mph - N/A   Clear
3:15 AM 45.0 °F 39.3 °F 35.6 °F 70% 29.98 in 10.0 mi ENE 11.5 mph - N/A   Clear
3:35 AM 44.8 °F 38.3 °F 35.6 °F 70% 29.98 in 10.0 mi NE 13.8 mph - N/A   Clear
3:55 AM 44.2 °F 38.4 °F 35.6 °F 72% 29.98 in 10.0 mi NE 11.5 mph - N/A   Clear
4:15 AM 43.7 °F 37.7 °F 35.2 °F 72% 29.99 in 10.0 mi NE 11.5 mph 16.1 mph N/A   Clear
4:35 AM 43.7 °F 37.7 °F 35.1 °F 72% 29.99 in 10.0 mi NE 11.5 mph - N/A   Clear
4:55 AM 43.2 °F 36.6 °F 34.9 °F 73% 30.00 in 10.0 mi NE 12.7 mph - N/A   Clear
5:15 AM 43.0 °F 36.4 °F 34.9 °F 73% 30.01 in 10.0 mi NE 12.7 mph 18.4 mph N/A   Clear
5:35 AM 42.4 °F 35.7 °F 34.7 °F 74% 30.02 in 10.0 mi NE 12.7 mph - N/A   Clear
5:55 AM 42.3 °F 35.1 °F 34.7 °F 75% 30.03 in 10.0 mi NE 13.8 mph 18.4 mph N/A   Clear
6:15 AM 41.9 °F 34.3 °F 34.7 °F 76% 30.05 in 10.0 mi NE 15.0 mph - N/A   Clear
6:35 AM 41.5 °F 34.2 °F 34.3 °F 76% 30.06 in 10.0 mi NE 13.8 mph 19.6 mph N/A   Clear
6:55 AM 41.0 °F 33.1 °F 34.2 °F 77% 30.05 in 10.0 mi NE 15.0 mph - N/A   Clear
7:15 AM 40.5 °F 31.5 °F 34.0 °F 78% 30.05 in 10.0 mi NE 18.4 mph 25.3 mph N/A   Clear
7:35 AM 39.9 °F 31.8 °F 33.8 °F 79% 30.07 in 10.0 mi NE 15.0 mph 21.9 mph N/A   Clear
7:55 AM 39.2 °F 30.2 °F 33.8 °F 81% 30.08 in 10.0 mi NE 17.3 mph 21.9 mph N/A   Clear
8:15 AM 39.2 °F 30.5 °F 33.8 °F 81% 30.08 in 10.0 mi NE 16.1 mph 21.9 mph N/A   Clear
8:35 AM 39.2 °F 31.2 °F 33.8 °F 81% 30.09 in 10.0 mi NE 13.8 mph 25.3 mph N/A   Clear
8:55 AM 39.6 °F 31.3 °F 33.8 °F 80% 30.10 in 10.0 mi NE 15.0 mph 23.0 mph N/A   Clear
9:15 AM 39.7 °F 30.9 °F 33.8 °F 79% 30.11 in 10.0 mi NE 17.3 mph 23.0 mph N/A   Clear
9:35 AM 40.8 °F 32.0 °F 33.8 °F 76% 30.11 in 10.0 mi NE 18.4 mph 21.9 mph N/A   Clear
9:55 AM 41.5 °F 34.2 °F 34.2 °F 75% 30.12 in 10.0 mi ENE 13.8 mph 20.7 mph N/A   Clear
10:15 AM 42.6 °F 34.6 °F 34.0 °F 71% 30.13 in 10.0 mi ENE 17.3 mph 23.0 mph N/A   Clear
10:35 AM 43.2 °F 35.3 °F 34.0 °F 70% 30.13 in 10.0 mi ENE 17.3 mph 23.0 mph N/A   Clear
10:55 AM 44.6 °F 37.8 °F 34.2 °F 67% 30.14 in 10.0 mi ENE 15.0 mph 24.2 mph N/A   Clear
11:15 AM 44.8 °F 38.0 °F 34.2 °F 66% 30.14 in 10.0 mi NE 15.0 mph 25.3 mph N/A   Clear
11:35 AM 45.7 °F 38.8 °F 34.2 °F 64% 30.14 in 10.0 mi ENE 16.1 mph 25.3 mph N/A   Clear
11:55 AM 46.8 °F - 34.3 °F 62% 30.14 in 10.0 mi ENE 18.4 mph 25.3 mph N/A   Clear
12:15 PM 48.2 °F - 34.5 °F 59% 30.14 in 10.0 mi ENE 18.4 mph 23.0 mph N/A   Clear
12:35 PM 48.0 °F - 34.2 °F 59% 30.14 in 10.0 mi ENE 17.3 mph 23.0 mph N/A   Clear
12:55 PM 49.1 °F - 34.5 °F 57% 30.13 in 10.0 mi ENE 18.4 mph 24.2 mph N/A   Clear
1:15 PM 49.1 °F - 34.7 °F 58% 30.11 in 10.0 mi ENE 17.3 mph 26.5 mph N/A   Clear
1:35 PM 50.0 °F - 34.9 °F 56% 30.10 in 10.0 mi ENE 20.7 mph 25.3 mph N/A   Clear
1:55 PM 49.8 °F - 34.5 °F 56% 30.09 in 10.0 mi ENE 19.6 mph 26.5 mph N/A   Clear
2:15 PM 50.0 °F - 34.7 °F 56% 30.09 in 10.0 mi ENE 18.4 mph 26.5 mph N/A   Clear
2:35 PM 50.7 °F - 34.7 °F 54% 30.08 in 10.0 mi ENE 15.0 mph 24.2 mph N/A   Clear
2:55 PM 50.9 °F - 34.7 °F 54% 30.08 in 10.0 mi ENE 19.6 mph 24.2 mph N/A   Scattered Clouds
3:15 PM 51.1 °F - 34.9 °F 54% 30.08 in 10.0 mi ENE 17.3 mph 25.3 mph N/A   Mostly Cloudy
3:35 PM 51.3 °F - 34.7 °F 53% 30.08 in 10.0 mi East 15.0 mph 25.3 mph N/A   Mostly Cloudy
3:55 PM 51.4 °F - 35.1 °F 54% 30.08 in 10.0 mi ENE 16.1 mph 19.6 mph N/A   Overcast
4:15 PM 50.9 °F - 34.7 °F 54% 30.08 in 10.0 mi East 15.0 mph 20.7 mph N/A   Overcast
4:35 PM 51.1 °F - 35.1 °F 54% 30.08 in 10.0 mi East 18.4 mph 25.3 mph N/A   Overcast
4:55 PM 50.9 °F - 35.1 °F 55% 30.09 in 10.0 mi ENE 13.8 mph 23.0 mph N/A   Overcast
5:15 PM 50.5 °F - 35.1 °F 55% 30.09 in 10.0 mi East 16.1 mph 21.9 mph N/A   Overcast
5:35 PM 50.2 °F - 35.2 °F 57% 30.09 in 10.0 mi ENE 13.8 mph 23.0 mph N/A   Mostly Cloudy
5:55 PM 49.6 °F - 35.6 °F 59% 30.09 in 10.0 mi ENE 12.7 mph 19.6 mph N/A   Mostly Cloudy
6:15 PM 49.5 °F - 35.6 °F 59% 30.09 in 10.0 mi ENE 13.8 mph 18.4 mph N/A   Overcast
6:35 PM 49.3 °F - 35.6 °F 59% 30.10 in 10.0 mi ENE 12.7 mph 23.0 mph N/A   Overcast
6:55 PM 49.1 °F - 35.6 °F 60% 30.10 in 10.0 mi ENE 13.8 mph 18.4 mph N/A   Overcast
7:15 PM 49.1 °F - 35.8 °F 60% 30.10 in 10.0 mi ENE 15.0 mph 19.6 mph N/A   Overcast
7:35 PM 49.1 °F - 35.8 °F 60% 30.12 in 10.0 mi NE 11.5 mph 17.3 mph N/A   Overcast
7:55 PM 48.0 °F - 36.1 °F 63% 30.13 in 10.0 mi NNE 10.4 mph - N/A   Overcast
8:15 PM 47.5 °F - 36.5 °F 66% 30.12 in 10.0 mi NNE 9.2 mph - N/A   Overcast
8:35 PM 47.3 °F - 36.5 °F 66% 30.13 in 10.0 mi NE 9.2 mph - N/A   Overcast
8:55 PM 47.3 °F - 36.7 °F 67% 30.13 in 10.0 mi NE 6.9 mph - N/A   Overcast
9:15 PM 47.1 °F - 36.7 °F 67% 30.13 in 10.0 mi NE 9.2 mph - N/A Thunderstorm Overcast
9:35 PM 46.8 °F - 36.9 °F 68% 30.14 in 10.0 mi NE 10.4 mph - N/A Thunderstorm Overcast
9:55 PM 46.4 °F 41.5 °F 37.4 °F 71% 30.13 in 10.0 mi NE 10.4 mph - N/A   Overcast
10:15 PM 46.0 °F 41.0 °F 37.6 °F 72% 30.13 in 10.0 mi NE 10.4 mph - N/A   Overcast
10:35 PM 46.2 °F 40.8 °F 37.8 °F 72% 30.13 in 10.0 mi NE 11.5 mph 17.3 mph N/A   Overcast
10:55 PM 45.9 °F 40.0 °F 38.1 °F 74% 30.12 in 10.0 mi ENE 12.7 mph 17.3 mph N/A   Overcast
11:15 PM 45.7 °F 39.8 °F 38.1 °F 75% 30.12 in 10.0 mi ENE 12.7 mph 19.6 mph N/A Thunderstorm Overcast
11:35 PM 45.7 °F 39.5 °F 38.3 °F 75% 30.12 in 10.0 mi ENE 13.8 mph 18.4 mph N/A   Overcast
11:55 PM 45.5 °F 39.9 °F 38.7 °F 77% 30.11 in 10.0 mi ENE 11.5 mph 18.4 mph N/A   Overcast